Погода в Могоче

Погода в Могоче : погода сейчас, прогноз погоды и архив. Всё, что Вы хотите узнать о погоде в Могоче!

Хотите узнать прогноз погоды в Могоче? Тогда Вам сюда: Погода в Могоче

Поиск расширенной информации на нашем сайте:

Полезная информация: предлагаются помещения продажа офиса в БЦ Eurasia Tower в деловом центре Москва Сити

Другие новости

Новости СМИ2

Главная страница сайта

Новости сайта

02.10.2013

Напоминаем, что на нашем новом сайте вы можете получить высокодетализированные прогнозы погоды по пунктам России, СНГ и мира (включающие важные для авиации метеовеличины, такие как направление и скорость ветра, видимость, явления погоды, количество и форма облачности, нижняя и верхняя граница облачности), а также ознакомиться с разнообразными материалами по авиационной метеорологии и подборкой полезных ссылок на эту тему.

Сайт Метеоцентр.Азия посвящён разработке технологий оптимизации авиаметеорологического обслуживания, включая проектирование и перспективное создание нескольких автоматизированных авиаметеорологических систем:
- система выпуска высокодетальных прогностических карт явлений погоды для нижнего воздушного пространства по России и ближнему зарубежью;
- система верификации прогнозов TAF (выпускаемых синоптиками официальных АМСГ РФ и ближнего зарубежья) и AUTOTAF (выпускаемых сайтом Метеоцентр.Азия) - выявление ошибок, онлайн-сопоставление с фактической погодой METAR, автоматическое внесение коррективов в прогнозы при резком отклонении фактической погоды от прогноза, подсчёт оправдываемости прогнозов по элементам и в целом;
- система обработки, анализа и отображения авиаметеорологической информации для применения провайдерами метеорологической информации.

Рекомендуем: проточка тормозных дисков

Погода в Могоче - сегодня

Время (UTC), дата Ветер
(°,м/с) 
Видим.   Явления Облачность Т
(°С)
Тd
(°С)
f(%) Тe
(°С)
Pmin
(гПа)
dP
(гПа)
Po
(мм)
O2
(г/м3)
Тmin Tmax R s Состояние
почвы
09 18.02.17 190 (Ю) 20000 м    6/0 верхняя 
[Ci fib]
-16 -27.6 36 -18  1018.1  -1.7  703  303           
12 18.02.17 060 (СВ) 20000 м    6/0 верхняя 
[Ci fib]
-24.3 -30.8 55 -25  1020.6  -0.3  703  313    -13.9       
15 18.02.17 тихо ()   20000 м    8/0 верхняя 
[Ci fib]
-27.7 -32.6 63 -28  1022.2  0.2  703  317           
18 18.02.17 330 (СЗ) н/о    н/о 
-27.7 -32.1 66 -28  1021.6  -0.4  703  317           
21 18.02.17 тихо ()   20000 м    10/0 верхняя 
[Cs]
-28.2 -32.3 68 -28  1021.8  -0.1  703  318           
00 19.02.17 тихо ()   20000 м    10/0 средняя, верхняя 
[Ac As|Cs]
-28.9 -32.7 70 -29  1024.1  1.9  704  319  -29.3      равномерный
сухой снег
100% 
03 19.02.17 тихо ()   20000 м    10/0 средняя, верхняя 
[Ac As|Cs]
-21.3 -27.7 56 -21  1022.5  0.9  705  310           
06 19.02.17 130 (ЮВ) 20000 м    4/0 верхняя 
[Cs]
-11.5 -22.9 38 -13  1019  -0.3  705  298           
09 19.02.17 020 (С) 20000 м    ясно 
-12 -26.6 29 -14  1020.6  1.4  706  299           
12 19.02.17 320 (СЗ) 20000 м    ясно 
-23.4 -29.1 60 -24  1026.1  1.5  707  313    -10.9       
15 19.02.17 360 (С) 20000 м    ясно 
-27.5 -31.5 69 -28  1027.8  0.3  707  319           
18 19.02.17 тихо ()   20000 м    ясно 
-29.5 -33.3 70 -30  1029.1  0.5  708  321           
21 19.02.17 тихо ()   20000 м    3/0 верхняя 
[Ci fib]
-31.8 -36 66 -32  1031.2  1.1  709  325           
00 20.02.17 тихо ()   20000 м    3/0 верхняя 
[Cs]
-31 -35.1 67 -31  1032.4  1.4  710  324  -32.3      равномерный
сухой снег
100% 
03 20.02.17 тихо ()   20000 м    ясно 
-16.8 -24.8 50 -17  1026.6  -0.8  709  306           
06 20.02.17 180 (Ю) 20000 м    ясно 
-6.5 -21.2 30 -6  1021.4  -1.8  708  293           
09 20.02.17 260 (З) 20000 м    ясно 
-7.3 -20.6 34 -10  1021.1  -0.5  707  294           
12 20.02.17 080 (В) 20000 м    ясно 
-17.8 -24.1 58 -18  1024.8  0.3  707  307    -5.5       
15 20.02.17 тихо ()   20000 м    ясно 
-22.4 -26.1 72 -22  1026.5  0.2  708  312           
18 20.02.17 тихо ()   20000 м    ясно 
-26.9 -30.3 73 -27  1027.7  -0.4  707  318           
21 20.02.17 тихо ()   20000 м    ясно 
-29.2 -32.9 70 -29  1027.3  -1.1  707  321           
00 21.02.17 тихо ()   20000 м    1/0 верхняя 
[Cc]
-28.9 -32.7 70 -29  1027.1  -0.1  706  320  -31.1      равномерный
сухой снег
100% 
03 21.02.17 080 (В) 20000 м    8/0 верхняя 
[Ci fib]
-17 -23.2 59 -17  1021.7  -1.3  706  305           
06 21.02.17 140 (ЮВ) 20000 м    ясно 
-7.4 -19 39 -7  1016.4  -2.1  704  293           
09 21.02.17 260 (З) 20000 м    1/0 средняя 
[Ac lent]
-7 -19.6 36 -7  1016.1  -0.2  704  292           
Время (UTC), дата Ветер
(°,м/с) 
Видим.   Явления Облачность Т
(°С)
Тd
(°С)
f(%) Тe
(°С)
Pmin
(гПа)
dP
(гПа)
Po
(мм)
O2
(г/м3)
Тmin Tmax R s Состояние
почвы

Для получения пояснительной информации подведите курсор к названию столбца.

ПОГОДА в Могоче - архив

Всё, что Вы хотите узнать о погоде в Могоче - удобно и подробно!

Выберите нужную дату (начиная с 1 января 2015* года) и нажмите кнопку "Найти".
Будут отображены архивные сводки погоды по пункту Могоча, начиная с указанной даты.


Отображать данные в формате CSV (для использования в таблицах Excel)


Внимание! Наш архив погоды предназначен исключительно для личного некоммерческого использования в познавательных целях. Если Вам необходимы официальные справки о состоянии погоды (для производственных, юридических, коммерческих и т.п. целей), обращайтесь в органы Росгидромета.

*Примечание: данная дата относится к архиву по метеостанциям СССР (Россия, СНГ, Балтия).
Архив по метеостанциям Зарубежной Европы и Азии (кроме Китая) хранится 10 дней, по другим регионам земного шара (Китай, Африка, Америка, Австралия, Океания) - 1 день.

Могоча - район местоположения метеостанции


Название, широта, долгота, высота метеостанции:
Могоча 53.8°ш. 119.7°д. 625 м над ур. моря [Российская Федерация]

Дополнительная информация

В oтличие oт бoльшинства пoгoдных сайтoв мы публикуем пoдрoбную метеoинфoрмацию в детальнoм прoфессиoнальнoм фoрмате.

Характеристики температуры и влажнoсти вoздуха измеряются на высoте 2 м в тени вдали oт зданий и деревьев.
Скoрoсть ветра измеряется на высoте 10 м (на урoвне рoста челoвека скoрoсть ветра ниже в 1.5-2 раза). Если метеoстанция нахoдится в гoрoде или в лесу, тo скoрoсть ветра занижена на 2-4 м/с пo сравнению с oткрытым местoм. Скoрoсть ветра над акватoриями крупных рек и oзёр, а также на вершинах хoлмoв на 2-5 м/с выше, чем в oбычных услoвиях.
Атмoсфернoе давление в разных тoчках местнoсти мoжет значительнo oтличаться oт давления на метеoстанции, в зависимoсти oт услoвий рельефа (при пoдъёме на 10 м давление пoнижается примернo на 1 мм рт.ст.).